User: anonymous   Login
Location: ??????
(41.3164°N, 22.6615°E)
Time: 19:00:49
(UTC+00:00)
Language:

Aureole 2 - Orbit

View from above orbital plane
View from above orbital plane
View from above satellite
View from above satellite

Ground track
Ground track

The orbit data is extracted from the following two-line orbital elements,

1 07003U 73107A   22022.51720030  .00003908  00000-0  14633-3 0  9994
2 07003  73.9264 294.9560 0370658 256.8399  99.1182 14.81792794461631
Epoch (UTC): 22 January 2022 12:24:46
Eccentricity: 0.0370658
inclination: 73.9264°
perigee height: 364 km
apogee height: 883 km
right ascension of ascending node: 294.9560°
argument of perigee: 256.8399°
revolutions per day: 14.81792794
mean anomaly at epoch: 99.1182°
orbit number at epoch: 46163

The dashed part of the orbit path shows where the satellite is in the earth's shadow,  

DLR